Regional Weather Roundup
Issued by NWS

Home | Current Version | Previous Version | Graphics & Text | Print | Product List | Glossary On
Versions: 1 2 3 4 5 6 7 8 9 10 11 12 13 14 15 16 17 18 19 20 21 22 23 24 25 26 27 28 29 30 31 32 33 34 35 36 37 38 39 40 41 42 43 44 45 46 47 48 49 50
000
ASUS43 KLSX 270910
RWRMO

WEATHER SUMMARY FOR MISSOURI
NATIONAL WEATHER SERVICE SPRINGFIELD MO
400 AM CDT SUN MAY 27 2018

NOTE: "FAIR" INDICATES FEW OR NO CLOUDS BELOW 12,000 FEET WITH NO
       SIGNIFICANT WEATHER AND/OR OBSTRUCTIONS TO VISIBILITY.
       CURRENT SKY AND/OR WEATHER CONDITIONS ARE NOT AVAILABLE FOR
       CHILLICOTHE AND FARMINGTON.

MOZ001>031-035>038-043-044-053-054-271000-
...NORTHERN AND WESTERN MISSOURI...

CITY           SKY/WX    TMP DP  RH WIND       PRES   REMARKS
KANSAS CTY INT CLEAR     70  67  90 S6        29.83S
KANSAS C DTWN  CLEAR     75  66  73 S7        29.82R
LEE`S SUMMIT   PTCLDY    75  68  78 SW9       29.84S
ST JOSEPH      CLEAR     74  69  85 SE3       29.82R
CHILLICOTHE      N/A     75  71  87 S3        29.83R
KIRKSVILLE     CLEAR     74  71  91 SW5       29.83S

$$
MOZ066>068-077>081-088>096-101>105-271000-
...SOUTHWEST MISSOURI...

CITY           SKY/WX    TMP DP  RH WIND       PRES   REMARKS
SPRINGFIELD    CLEAR     70  65  84 SE8       29.87S
JOPLIN         CLEAR     70  67  90 S7        29.86S
BRANSON        CLEAR     66  66 100 CALM      29.90S

$$
MOZ032>034-039>042-045>050-055>058-069>072-271000-
...CENTRAL MISSOURI...

CITY           SKY/WX    TMP DP  RH WIND       PRES   REMARKS
COLUMBIA       CLEAR     71  68  90 S7        29.85S
JEFFERSON CITY CLEAR     72  69  90 E5        29.85S
ROLLA          CLEAR     70  67  90 S8        29.88F
SEDALIA        CLEAR     74  70  87 S6        29.86R
WHITEMAN AFB   CLEAR     70  69  95 S7        29.81R
WARRENSBURG    CLEAR     70  68  94 S5        29.84R
OSAGE BEACH    CLEAR     69  68  96 CALM      29.88S

$$
MOZ051-052-059>065-271000-
...EAST CENTRAL MISSOURI...

CITY           SKY/WX    TMP DP  RH WIND       PRES   REMARKS
ST LOUIS INTL  CLOUDY    71  69  93 CALM      29.84S
SPIRIT OF STL  CLOUDY    75  70  84 CALM      29.83F
ST CHARLES     PTCLDY    72  68  87 CALM      29.82F

$$
MOZ072>076-082>087-097>100-106>115-271000-
...SOUTH CENTRAL AND SOUTHEAST MISSOURI...

CITY           SKY/WX    TMP DP  RH WIND       PRES   REMARKS
CAPE GIRARDEAU FAIR      69  67  93 CALM      29.86S
FARMINGTON     CLEAR     68  67  96 CALM      29.88F
POPLAR BLUFF   FAIR      70  70 100 CALM      29.87R FOG
WEST PLAINS    CLEAR     66  64  93 CALM      29.91S

$$




USA.gov is the U.S. government's official web portal to all federal, state and local government web resources and services.